Year,Month,Day,Hour,Minute,Value (Times are PST for temperature in C)
2015,06,29,00,00,22.20
2015,06,29,00,01,22.20
2015,06,29,00,02,22.30
2015,06,29,00,03,22.30
2015,06,29,00,04,22.30
2015,06,29,00,05,22.30
2015,06,29,00,06,22.40
2015,06,29,00,07,22.40
2015,06,29,00,08,22.40
2015,06,29,00,09,22.40
2015,06,29,00,10,22.40
2015,06,29,00,11,22.40
2015,06,29,00,12,22.40
2015,06,29,00,13,22.40
2015,06,29,00,14,22.40
2015,06,29,00,15,22.50
2015,06,29,00,16,22.50
2015,06,29,00,17,22.50
2015,06,29,00,18,22.60
2015,06,29,00,19,22.60
2015,06,29,00,20,22.70
2015,06,29,00,21,22.70
2015,06,29,00,22,22.70
2015,06,29,00,23,22.80
2015,06,29,00,24,22.80
2015,06,29,00,25,22.80
2015,06,29,00,26,22.90
2015,06,29,00,27,22.90
2015,06,29,00,28,22.90
2015,06,29,00,29,22.80
2015,06,29,00,30,22.80
2015,06,29,00,31,22.80
2015,06,29,00,32,22.70
2015,06,29,00,33,22.70
2015,06,29,00,34,22.70
2015,06,29,00,35,22.70
2015,06,29,00,36,22.70
2015,06,29,00,37,22.70
2015,06,29,00,38,22.70
2015,06,29,00,39,22.70
2015,06,29,00,40,22.70
2015,06,29,00,41,22.70
2015,06,29,00,42,22.70
2015,06,29,00,43,22.80
2015,06,29,00,44,22.80
2015,06,29,00,45,22.80
2015,06,29,00,46,22.80
2015,06,29,00,47,22.80
2015,06,29,00,48,22.80
2015,06,29,00,49,22.90
2015,06,29,00,50,22.90
2015,06,29,00,51,22.90
2015,06,29,00,52,22.90
2015,06,29,00,53,22.90
2015,06,29,00,54,22.90
2015,06,29,00,55,22.90
2015,06,29,00,56,22.90
2015,06,29,00,57,22.80
2015,06,29,00,58,22.80
2015,06,29,00,59,22.70
2015,06,29,01,00,22.70
2015,06,29,01,01,22.60
2015,06,29,01,02,22.60
2015,06,29,01,03,22.60
2015,06,29,01,04,22.50
2015,06,29,01,05,22.50
2015,06,29,01,06,22.40
2015,06,29,01,07,22.40
2015,06,29,01,08,22.40
2015,06,29,01,09,22.40
2015,06,29,01,10,22.40
2015,06,29,01,11,22.40
2015,06,29,01,12,22.30
2015,06,29,01,13,22.30
2015,06,29,01,14,22.30
2015,06,29,01,15,22.30
2015,06,29,01,16,22.30
2015,06,29,01,17,22.30
2015,06,29,01,18,22.30
2015,06,29,01,19,22.30
2015,06,29,01,20,22.30
2015,06,29,01,21,22.20
2015,06,29,01,22,22.10
2015,06,29,01,23,22.10
2015,06,29,01,24,22.00
2015,06,29,01,25,21.90
2015,06,29,01,26,21.90
2015,06,29,01,27,21.80
2015,06,29,01,28,21.80
2015,06,29,01,29,21.70
2015,06,29,01,30,21.70
2015,06,29,01,31,21.60
2015,06,29,01,32,21.60
2015,06,29,01,33,21.60
2015,06,29,01,34,21.50
2015,06,29,01,35,21.50
2015,06,29,01,36,21.40
2015,06,29,01,37,21.40
2015,06,29,01,38,21.30
2015,06,29,01,39,21.30
2015,06,29,01,40,21.20
2015,06,29,01,41,21.20
2015,06,29,01,42,21.20
2015,06,29,01,43,21.10
2015,06,29,01,44,21.10
2015,06,29,01,45,21.10
2015,06,29,01,46,21.00
2015,06,29,01,47,21.00
2015,06,29,01,48,21.00
2015,06,29,01,49,21.00
2015,06,29,01,50,20.90
2015,06,29,01,51,20.90
2015,06,29,01,52,20.90
2015,06,29,01,53,20.90
2015,06,29,01,54,20.90
2015,06,29,01,55,20.90
2015,06,29,01,56,20.90
2015,06,29,01,57,20.90
2015,06,29,01,58,20.90
2015,06,29,01,59,20.90
2015,06,29,02,00,20.90
2015,06,29,02,01,20.90
2015,06,29,02,02,20.90
2015,06,29,02,03,20.90
2015,06,29,02,04,20.90
2015,06,29,02,05,20.80
2015,06,29,02,06,20.80
2015,06,29,02,07,20.80
2015,06,29,02,08,20.80
2015,06,29,02,09,20.80
2015,06,29,02,10,20.70
2015,06,29,02,11,20.70
2015,06,29,02,12,20.70
2015,06,29,02,13,20.70
2015,06,29,02,14,20.70
2015,06,29,02,15,20.70
2015,06,29,02,16,20.70
2015,06,29,02,17,20.70
2015,06,29,02,18,20.70
2015,06,29,02,19,20.70
2015,06,29,02,20,20.70
2015,06,29,02,21,20.70
2015,06,29,02,22,20.70
2015,06,29,02,23,20.60
2015,06,29,02,24,20.60
2015,06,29,02,25,20.60
2015,06,29,02,26,20.60
2015,06,29,02,27,20.60
2015,06,29,02,28,20.50
2015,06,29,02,29,20.50
2015,06,29,02,30,20.50
2015,06,29,02,31,20.40
2015,06,29,02,32,20.40
2015,06,29,02,33,20.40
2015,06,29,02,34,20.30
2015,06,29,02,35,20.30
2015,06,29,02,36,20.40
2015,06,29,02,37,20.40
2015,06,29,02,38,20.40
2015,06,29,02,39,20.50
2015,06,29,02,40,20.50
2015,06,29,02,41,20.50
2015,06,29,02,42,20.50
2015,06,29,02,43,20.50
2015,06,29,02,44,20.50
2015,06,29,02,45,20.50
2015,06,29,02,46,20.60
2015,06,29,02,47,20.60
2015,06,29,02,48,20.60
2015,06,29,02,49,20.60
2015,06,29,02,50,20.60
2015,06,29,02,51,20.60
2015,06,29,02,52,20.60
2015,06,29,02,53,20.60
2015,06,29,02,54,20.60
2015,06,29,02,55,20.60
2015,06,29,02,56,20.60
2015,06,29,02,57,20.60
2015,06,29,02,58,20.60
2015,06,29,02,59,20.60
2015,06,29,03,00,20.60
2015,06,29,03,01,20.50
2015,06,29,03,02,20.50
2015,06,29,03,03,20.40
2015,06,29,03,04,20.40
2015,06,29,03,05,20.40
2015,06,29,03,06,20.40
2015,06,29,03,07,20.40
2015,06,29,03,08,20.40
2015,06,29,03,09,20.30
2015,06,29,03,10,20.30
2015,06,29,03,11,20.30
2015,06,29,03,12,20.30
2015,06,29,03,13,20.30
2015,06,29,03,14,20.20
2015,06,29,03,15,20.20
2015,06,29,03,16,20.20
2015,06,29,03,17,20.10
2015,06,29,03,18,20.10
2015,06,29,03,19,20.10
2015,06,29,03,20,20.00
2015,06,29,03,21,20.00
2015,06,29,03,22,20.00
2015,06,29,03,23,20.00
2015,06,29,03,24,19.90
2015,06,29,03,25,19.90
2015,06,29,03,26,19.90
2015,06,29,03,27,19.80
2015,06,29,03,28,19.80
2015,06,29,03,29,19.80
2015,06,29,03,30,19.80
2015,06,29,03,31,19.80
2015,06,29,03,32,19.70
2015,06,29,03,33,19.70
2015,06,29,03,34,19.70
2015,06,29,03,35,19.70
2015,06,29,03,36,19.70
2015,06,29,03,37,19.70
2015,06,29,03,38,19.70
2015,06,29,03,39,19.70
2015,06,29,03,40,19.70
2015,06,29,03,41,19.70
2015,06,29,03,42,19.80
2015,06,29,03,43,19.80
2015,06,29,03,44,19.80
2015,06,29,03,45,19.80
2015,06,29,03,46,19.80
2015,06,29,03,47,19.80
2015,06,29,03,48,19.80
2015,06,29,03,49,19.80
2015,06,29,03,50,19.80
2015,06,29,03,51,19.80
2015,06,29,03,52,19.80
2015,06,29,03,53,19.80
2015,06,29,03,54,19.80
2015,06,29,03,55,19.80
2015,06,29,03,56,19.80
2015,06,29,03,57,19.80
2015,06,29,03,58,19.80
2015,06,29,03,59,19.70
2015,06,29,04,00,19.70
2015,06,29,04,01,19.70
2015,06,29,04,02,19.70
2015,06,29,04,03,19.70
2015,06,29,04,04,19.70
2015,06,29,04,05,19.70
2015,06,29,04,06,19.70
2015,06,29,04,07,19.70
2015,06,29,04,08,19.70
2015,06,29,04,09,19.70
2015,06,29,04,10,19.70
2015,06,29,04,11,19.70
2015,06,29,04,12,19.70
2015,06,29,04,13,19.70
2015,06,29,04,14,19.70
2015,06,29,04,15,19.60
2015,06,29,04,16,19.60
2015,06,29,04,17,19.50
2015,06,29,04,18,19.50
2015,06,29,04,19,19.40
2015,06,29,04,20,19.40
2015,06,29,04,21,19.40
2015,06,29,04,22,19.30
2015,06,29,04,23,19.30
2015,06,29,04,24,19.30
2015,06,29,04,25,19.30
2015,06,29,04,26,19.30
2015,06,29,04,27,19.30
2015,06,29,04,28,19.20
2015,06,29,04,29,19.20
2015,06,29,04,30,19.20
2015,06,29,04,31,19.20
2015,06,29,04,32,19.10
2015,06,29,04,33,19.10
2015,06,29,04,34,19.10
2015,06,29,04,35,19.10
2015,06,29,04,36,19.10
2015,06,29,04,37,19.10
2015,06,29,04,38,19.10
2015,06,29,04,39,19.10
2015,06,29,04,40,19.20
2015,06,29,04,41,19.20
2015,06,29,04,42,19.30
2015,06,29,04,43,19.30
2015,06,29,04,44,19.40
2015,06,29,04,45,19.40
2015,06,29,04,46,19.50
2015,06,29,04,47,19.50
2015,06,29,04,48,19.60
2015,06,29,04,49,19.60
2015,06,29,04,50,19.60
2015,06,29,04,51,19.70
2015,06,29,04,52,19.70
2015,06,29,04,53,19.70
2015,06,29,04,54,19.70
2015,06,29,04,55,19.70
2015,06,29,04,56,19.70
2015,06,29,04,57,19.70
2015,06,29,04,58,19.70
2015,06,29,04,59,19.70
2015,06,29,05,00,19.70
2015,06,29,05,01,19.70
2015,06,29,05,02,19.70
2015,06,29,05,03,19.60
2015,06,29,05,04,19.60
2015,06,29,05,05,19.60
2015,06,29,05,06,19.60
2015,06,29,05,07,19.60
2015,06,29,05,08,19.60
2015,06,29,05,09,19.60
2015,06,29,05,10,19.60
2015,06,29,05,11,19.60
2015,06,29,05,12,19.50
2015,06,29,05,13,19.50
2015,06,29,05,14,19.50
2015,06,29,05,15,19.50
2015,06,29,05,16,19.50
2015,06,29,05,17,19.40
2015,06,29,05,18,19.40
2015,06,29,05,19,19.40
2015,06,29,05,20,19.30
2015,06,29,05,21,19.30
2015,06,29,05,22,19.30
2015,06,29,05,23,19.20
2015,06,29,05,24,19.20
2015,06,29,05,25,19.10
2015,06,29,05,26,19.10
2015,06,29,05,27,19.10
2015,06,29,05,28,19.00
2015,06,29,05,29,19.00
2015,06,29,05,30,18.90
2015,06,29,05,31,18.90
2015,06,29,05,32,18.90
2015,06,29,05,33,18.90
2015,06,29,05,34,18.90
2015,06,29,05,35,18.90
2015,06,29,05,36,18.80
2015,06,29,05,37,18.80
2015,06,29,05,38,18.80
2015,06,29,05,39,18.80
2015,06,29,05,40,18.70
2015,06,29,05,41,18.70
2015,06,29,05,42,18.70
2015,06,29,05,43,18.70
2015,06,29,05,44,18.70
2015,06,29,05,45,18.70
2015,06,29,05,46,18.70
2015,06,29,05,47,18.70
2015,06,29,05,48,18.70
2015,06,29,05,49,18.70
2015,06,29,05,50,18.70
2015,06,29,05,51,18.70
2015,06,29,05,52,18.70
2015,06,29,05,53,18.70
2015,06,29,05,54,18.70
2015,06,29,05,55,18.70
2015,06,29,05,56,18.70
2015,06,29,05,57,18.70
2015,06,29,05,58,18.70
2015,06,29,05,59,18.70
2015,06,29,06,00,18.70
2015,06,29,06,01,18.70
2015,06,29,06,02,18.70
2015,06,29,06,03,18.70
2015,06,29,06,04,18.70
2015,06,29,06,05,18.70
2015,06,29,06,06,18.70
2015,06,29,06,07,18.70
2015,06,29,06,08,18.70
2015,06,29,06,09,18.70
2015,06,29,06,10,18.70
2015,06,29,06,11,18.60
2015,06,29,06,12,18.60
2015,06,29,06,13,18.60
2015,06,29,06,14,18.60
2015,06,29,06,15,18.60
2015,06,29,06,16,18.60
2015,06,29,06,17,18.60
2015,06,29,06,18,18.60
2015,06,29,06,19,18.60
2015,06,29,06,20,18.60
2015,06,29,06,21,18.60
2015,06,29,06,22,18.60
2015,06,29,06,23,18.60
2015,06,29,06,24,18.60
2015,06,29,06,25,18.60
2015,06,29,06,26,18.70
2015,06,29,06,27,18.70
2015,06,29,06,28,18.70
2015,06,29,06,29,18.70
2015,06,29,06,30,18.70
2015,06,29,06,31,18.70
2015,06,29,06,32,18.80
2015,06,29,06,33,18.80
2015,06,29,06,34,18.80
2015,06,29,06,35,18.80
2015,06,29,06,36,18.90
2015,06,29,06,37,18.90
2015,06,29,06,38,18.90
2015,06,29,06,39,18.90
2015,06,29,06,40,18.90
2015,06,29,06,41,19.00
2015,06,29,06,42,19.00
2015,06,29,06,43,19.00
2015,06,29,06,44,19.00
2015,06,29,06,45,19.00
2015,06,29,06,46,19.10
2015,06,29,06,47,19.10
2015,06,29,06,48,19.10
2015,06,29,06,49,19.10
2015,06,29,06,50,19.10
2015,06,29,06,51,19.20
2015,06,29,06,52,19.20
2015,06,29,06,53,19.20
2015,06,29,06,54,19.20
2015,06,29,06,55,19.20
2015,06,29,06,56,19.30
2015,06,29,06,57,19.30
2015,06,29,06,58,19.30
2015,06,29,06,59,19.40
2015,06,29,07,00,19.40
2015,06,29,07,01,19.50
2015,06,29,07,02,19.50
2015,06,29,07,03,19.60
2015,06,29,07,04,19.60
2015,06,29,07,05,19.70
2015,06,29,07,06,19.70
2015,06,29,07,07,19.80
2015,06,29,07,08,19.80
2015,06,29,07,09,19.90
2015,06,29,07,10,19.90
2015,06,29,07,11,20.00
2015,06,29,07,12,20.10
2015,06,29,07,13,20.20
2015,06,29,07,14,20.20
2015,06,29,07,15,20.30
2015,06,29,07,16,20.40
2015,06,29,07,17,20.50
2015,06,29,07,18,20.60
2015,06,29,07,19,20.70
2015,06,29,07,20,20.80
2015,06,29,07,21,20.90
2015,06,29,07,22,21.00
2015,06,29,07,23,21.20
2015,06,29,07,24,21.30
2015,06,29,07,25,21.50
2015,06,29,07,26,21.60
2015,06,29,07,27,21.70
2015,06,29,07,28,21.90
2015,06,29,07,29,22.00
2015,06,29,07,30,22.10
2015,06,29,07,31,22.20
2015,06,29,07,32,22.30
2015,06,29,07,33,22.40
2015,06,29,07,34,22.50
2015,06,29,07,35,22.60
2015,06,29,07,36,22.70
2015,06,29,07,37,22.80
2015,06,29,07,38,22.80
2015,06,29,07,39,22.80
2015,06,29,07,40,22.80
2015,06,29,07,41,22.80
2015,06,29,07,42,22.80
2015,06,29,07,43,22.80
2015,06,29,07,44,22.80
2015,06,29,07,45,22.80
2015,06,29,07,46,22.80
2015,06,29,07,47,22.80
2015,06,29,07,48,22.90
2015,06,29,07,49,22.90
2015,06,29,07,50,22.80
2015,06,29,07,51,22.80
2015,06,29,07,52,22.80
2015,06,29,07,53,22.80
2015,06,29,07,54,22.80
2015,06,29,07,55,22.80
2015,06,29,07,56,22.70
2015,06,29,07,57,22.80
2015,06,29,07,58,22.80
2015,06,29,07,59,22.80
2015,06,29,08,00,22.90
2015,06,29,08,01,23.00
2015,06,29,08,02,23.10
2015,06,29,08,03,23.20
2015,06,29,08,04,23.30
2015,06,29,08,05,23.30
2015,06,29,08,06,23.30
2015,06,29,08,07,23.20
2015,06,29,08,08,23.20
2015,06,29,08,09,23.10
2015,06,29,08,10,23.00
2015,06,29,08,11,22.90
2015,06,29,08,12,22.90
2015,06,29,08,13,22.90
2015,06,29,08,14,22.90
2015,06,29,08,15,22.90
2015,06,29,08,16,22.90
2015,06,29,08,17,22.90
2015,06,29,08,18,23.00
2015,06,29,08,19,23.00
2015,06,29,08,20,23.10
2015,06,29,08,21,23.10
2015,06,29,08,22,23.10
2015,06,29,08,23,23.10
2015,06,29,08,24,23.10
2015,06,29,08,25,23.10
2015,06,29,08,26,23.10
2015,06,29,08,27,23.10
2015,06,29,08,28,23.10
2015,06,29,08,29,23.10
2015,06,29,08,30,23.10
2015,06,29,08,31,23.10
2015,06,29,08,32,23.10
2015,06,29,08,33,23.10
2015,06,29,08,34,23.10
2015,06,29,08,35,23.10
2015,06,29,08,36,23.10
2015,06,29,08,37,23.10
2015,06,29,08,38,23.00
2015,06,29,08,39,23.00
2015,06,29,08,40,23.00
2015,06,29,08,41,23.10
2015,06,29,08,42,23.10
2015,06,29,08,43,23.20
2015,06,29,08,44,23.20
2015,06,29,08,45,23.30
2015,06,29,08,46,23.40
2015,06,29,08,47,23.50
2015,06,29,08,48,23.60
2015,06,29,08,49,23.60
2015,06,29,08,50,23.50
2015,06,29,08,51,23.40
2015,06,29,08,52,23.40
2015,06,29,08,53,23.40
2015,06,29,08,54,23.50
2015,06,29,08,55,23.50
2015,06,29,08,56,23.60
2015,06,29,08,57,23.70
2015,06,29,08,58,23.70
2015,06,29,08,59,23.70
2015,06,29,09,00,23.70
2015,06,29,09,01,23.60
2015,06,29,09,02,23.70
2015,06,29,09,03,23.70
2015,06,29,09,04,23.80
2015,06,29,09,05,23.80
2015,06,29,09,06,23.90
2015,06,29,09,07,24.00
2015,06,29,09,08,24.20
2015,06,29,09,09,24.30
2015,06,29,09,10,24.40
2015,06,29,09,11,24.50
2015,06,29,09,12,24.60
2015,06,29,09,13,24.70
2015,06,29,09,14,24.70
2015,06,29,09,15,24.80
2015,06,29,09,16,24.90
2015,06,29,09,17,25.00
2015,06,29,09,18,25.00
2015,06,29,09,19,25.00
2015,06,29,09,20,25.10
2015,06,29,09,21,25.10
2015,06,29,09,22,25.10
2015,06,29,09,23,25.10
2015,06,29,09,24,25.10
2015,06,29,09,25,25.10
2015,06,29,09,26,25.20
2015,06,29,09,27,25.30
2015,06,29,09,28,25.30
2015,06,29,09,29,25.20
2015,06,29,09,30,25.10
2015,06,29,09,31,25.00
2015,06,29,09,32,24.90
2015,06,29,09,33,25.00
2015,06,29,09,34,25.00
2015,06,29,09,35,25.00
2015,06,29,09,36,25.10
2015,06,29,09,37,25.00
2015,06,29,09,38,25.00
2015,06,29,09,39,24.90
2015,06,29,09,40,24.90
2015,06,29,09,41,24.90
2015,06,29,09,42,24.90
2015,06,29,09,43,24.90
2015,06,29,09,44,24.80
2015,06,29,09,45,24.80
2015,06,29,09,46,24.70
2015,06,29,09,47,24.70
2015,06,29,09,48,24.70
2015,06,29,09,49,24.60
2015,06,29,09,50,24.50
2015,06,29,09,51,24.50
2015,06,29,09,52,24.60
2015,06,29,09,53,24.70
2015,06,29,09,54,24.70
2015,06,29,09,55,24.80
2015,06,29,09,56,24.80
2015,06,29,09,57,24.80
2015,06,29,09,58,24.90
2015,06,29,09,59,24.90
2015,06,29,10,00,25.00
2015,06,29,10,01,25.00
2015,06,29,10,02,25.10
2015,06,29,10,03,25.10
2015,06,29,10,04,25.00
2015,06,29,10,05,25.00
2015,06,29,10,06,24.90
2015,06,29,10,07,25.00
2015,06,29,10,08,25.00
2015,06,29,10,09,25.10
2015,06,29,10,10,25.10
2015,06,29,10,11,25.20
2015,06,29,10,12,25.20
2015,06,29,10,13,25.30
2015,06,29,10,14,25.40
2015,06,29,10,15,25.50
2015,06,29,10,16,25.50
2015,06,29,10,17,25.70
2015,06,29,10,18,25.80
2015,06,29,10,19,25.80
2015,06,29,10,20,25.80
2015,06,29,10,21,25.90
2015,06,29,10,22,25.90
2015,06,29,10,23,25.90
2015,06,29,10,24,25.80
2015,06,29,10,25,25.80
2015,06,29,10,26,25.70
2015,06,29,10,27,25.70
2015,06,29,10,28,25.80
2015,06,29,10,29,25.80
2015,06,29,10,30,25.80
2015,06,29,10,31,25.80
2015,06,29,10,32,25.80
2015,06,29,10,33,25.80
2015,06,29,10,34,25.80
2015,06,29,10,35,25.90
2015,06,29,10,36,25.90
2015,06,29,10,37,25.90
2015,06,29,10,38,25.90
2015,06,29,10,39,26.00
2015,06,29,10,40,26.10
2015,06,29,10,41,26.20
2015,06,29,10,42,26.10
2015,06,29,10,43,25.90
2015,06,29,10,44,25.70
2015,06,29,10,45,25.40
2015,06,29,10,46,25.20
2015,06,29,10,47,25.00
2015,06,29,10,48,24.80
2015,06,29,10,49,24.70
2015,06,29,10,50,24.70
2015,06,29,10,51,24.70
2015,06,29,10,52,24.80
2015,06,29,10,53,24.90
2015,06,29,10,54,25.10
2015,06,29,10,55,25.30
2015,06,29,10,56,25.50
2015,06,29,10,57,25.70
2015,06,29,10,58,25.90
2015,06,29,10,59,26.00
2015,06,29,11,00,26.10
2015,06,29,11,01,26.10
2015,06,29,11,02,26.10
2015,06,29,11,03,26.20
2015,06,29,11,04,26.30
2015,06,29,11,05,26.40
2015,06,29,11,06,26.50
2015,06,29,11,07,26.60
2015,06,29,11,08,26.70
2015,06,29,11,09,26.80
2015,06,29,11,10,26.80
2015,06,29,11,11,26.80
2015,06,29,11,12,26.80
2015,06,29,11,13,26.90
2015,06,29,11,14,26.90
2015,06,29,11,15,26.90
2015,06,29,11,16,26.90
2015,06,29,11,17,26.90
2015,06,29,11,18,26.90
2015,06,29,11,19,27.00
2015,06,29,11,20,27.10
2015,06,29,11,21,27.10
2015,06,29,11,22,27.20
2015,06,29,11,23,27.10
2015,06,29,11,24,27.10
2015,06,29,11,25,27.10
2015,06,29,11,26,27.10
2015,06,29,11,27,27.10
2015,06,29,11,28,27.10
2015,06,29,11,29,27.10
2015,06,29,11,30,27.20
2015,06,29,11,31,27.20
2015,06,29,11,32,27.30
2015,06,29,11,33,27.30
2015,06,29,11,34,27.30
2015,06,29,11,35,27.30
2015,06,29,11,36,27.30
2015,06,29,11,37,27.40
2015,06,29,11,38,27.40
2015,06,29,11,39,27.40
2015,06,29,11,40,27.50
2015,06,29,11,41,27.60
2015,06,29,11,42,27.60
2015,06,29,11,43,27.70
2015,06,29,11,44,27.80
2015,06,29,11,45,27.80
2015,06,29,11,46,27.90
2015,06,29,11,47,27.90
2015,06,29,11,48,28.00
2015,06,29,11,49,28.00
2015,06,29,11,50,28.00
2015,06,29,11,51,28.00
2015,06,29,11,52,28.10
2015,06,29,11,53,28.10
2015,06,29,11,54,28.10
2015,06,29,11,55,28.10
2015,06,29,11,56,28.00
2015,06,29,11,57,28.10
2015,06,29,11,58,28.10
2015,06,29,11,59,28.10
2015,06,29,12,00,28.10
2015,06,29,12,01,28.20
2015,06,29,12,02,28.20
2015,06,29,12,03,28.20
2015,06,29,12,04,28.20
2015,06,29,12,05,28.20
2015,06,29,12,06,28.30
2015,06,29,12,07,28.40
2015,06,29,12,08,28.50
2015,06,29,12,09,28.60
2015,06,29,12,10,28.60
2015,06,29,12,11,28.60
2015,06,29,12,12,28.60
2015,06,29,12,13,28.60
2015,06,29,12,14,28.70
2015,06,29,12,15,28.70
2015,06,29,12,16,28.60
2015,06,29,12,17,28.50
2015,06,29,12,18,28.40
2015,06,29,12,19,28.40
2015,06,29,12,20,28.40
2015,06,29,12,21,28.40
2015,06,29,12,22,28.30
2015,06,29,12,23,28.40
2015,06,29,12,24,28.50
2015,06,29,12,25,28.60
2015,06,29,12,26,28.70
2015,06,29,12,27,28.80
2015,06,29,12,28,28.80
2015,06,29,12,29,28.80
2015,06,29,12,30,28.80
2015,06,29,12,31,28.80
2015,06,29,12,32,28.80
2015,06,29,12,33,28.90
2015,06,29,12,34,29.00
2015,06,29,12,35,29.00
2015,06,29,12,36,29.10
2015,06,29,12,37,29.10
2015,06,29,12,38,29.20
2015,06,29,12,39,29.20
2015,06,29,12,40,29.20
2015,06,29,12,41,29.30
2015,06,29,12,42,29.30
2015,06,29,12,43,29.30
2015,06,29,12,44,29.40
2015,06,29,12,45,29.40
2015,06,29,12,46,29.50
2015,06,29,12,47,29.60
2015,06,29,12,48,29.60
2015,06,29,12,49,29.50
2015,06,29,12,50,29.50
2015,06,29,12,51,29.60
2015,06,29,12,52,29.60
2015,06,29,12,53,29.60
2015,06,29,12,54,29.50
2015,06,29,12,55,29.50
2015,06,29,12,56,29.60
2015,06,29,12,57,29.60
2015,06,29,12,58,29.60
2015,06,29,12,59,29.70
2015,06,29,13,00,29.70
2015,06,29,13,01,29.80
2015,06,29,13,02,29.80
2015,06,29,13,03,29.80
2015,06,29,13,04,29.80
2015,06,29,13,05,29.70
2015,06,29,13,06,29.60
2015,06,29,13,07,29.60
2015,06,29,13,08,29.50
2015,06,29,13,09,29.40
2015,06,29,13,10,29.30
2015,06,29,13,11,29.30
2015,06,29,13,12,29.40
2015,06,29,13,13,29.40
2015,06,29,13,14,29.40
2015,06,29,13,15,29.50
2015,06,29,13,16,29.50
2015,06,29,13,17,29.50
2015,06,29,13,18,29.40
2015,06,29,13,19,29.20
2015,06,29,13,20,29.10
2015,06,29,13,21,29.00
2015,06,29,13,22,29.10
2015,06,29,13,23,29.10
2015,06,29,13,24,29.20
2015,06,29,13,25,29.20
2015,06,29,13,26,29.20
2015,06,29,13,27,29.30
2015,06,29,13,28,29.30
2015,06,29,13,29,29.30
2015,06,29,13,30,29.30
2015,06,29,13,31,29.30
2015,06,29,13,32,29.20
2015,06,29,13,33,29.20
2015,06,29,13,34,29.20
2015,06,29,13,35,29.10
2015,06,29,13,36,29.10
2015,06,29,13,37,29.20
2015,06,29,13,38,29.20
2015,06,29,13,39,29.20
2015,06,29,13,40,29.20
2015,06,29,13,41,29.20
2015,06,29,13,42,29.20
2015,06,29,13,43,29.10
2015,06,29,13,44,29.00
2015,06,29,13,45,28.90
2015,06,29,13,46,28.90
2015,06,29,13,47,28.80
2015,06,29,13,48,28.80
2015,06,29,13,49,28.80
2015,06,29,13,50,28.90
2015,06,29,13,51,28.90
2015,06,29,13,52,28.90
2015,06,29,13,53,28.80
2015,06,29,13,54,28.80
2015,06,29,13,55,28.80
2015,06,29,13,56,28.70
2015,06,29,13,57,28.80
2015,06,29,13,58,28.90
2015,06,29,13,59,29.00
2015,06,29,14,00,29.00
2015,06,29,14,01,29.10
2015,06,29,14,02,29.10
2015,06,29,14,03,29.10
2015,06,29,14,04,29.10
2015,06,29,14,05,29.00
2015,06,29,14,06,28.90
2015,06,29,14,07,28.90
2015,06,29,14,08,28.80
2015,06,29,14,09,28.80
2015,06,29,14,10,28.90
2015,06,29,14,11,29.00
2015,06,29,14,12,29.10
2015,06,29,14,13,29.10
2015,06,29,14,14,29.10
2015,06,29,14,15,29.10
2015,06,29,14,16,29.00
2015,06,29,14,17,29.00
2015,06,29,14,18,29.10
2015,06,29,14,19,29.10
2015,06,29,14,20,29.10
2015,06,29,14,21,29.10
2015,06,29,14,22,29.10
2015,06,29,14,23,29.10
2015,06,29,14,24,29.10
2015,06,29,14,25,29.10
2015,06,29,14,26,29.00
2015,06,29,14,27,29.00
2015,06,29,14,28,28.90
2015,06,29,14,29,28.80
2015,06,29,14,30,28.80
2015,06,29,14,31,28.80
2015,06,29,14,32,28.80
2015,06,29,14,33,28.80
2015,06,29,14,34,28.90
2015,06,29,14,35,28.90
2015,06,29,14,36,28.90
2015,06,29,14,37,28.80
2015,06,29,14,38,28.70
2015,06,29,14,39,28.60
2015,06,29,14,40,28.60
2015,06,29,14,41,28.50
2015,06,29,14,42,28.50
2015,06,29,14,43,28.60
2015,06,29,14,44,28.70
2015,06,29,14,45,28.80
2015,06,29,14,46,28.90
2015,06,29,14,47,28.90
2015,06,29,14,48,28.90
2015,06,29,14,49,28.80
2015,06,29,14,50,28.70
2015,06,29,14,51,28.60
2015,06,29,14,52,28.60
2015,06,29,14,53,28.60
2015,06,29,14,54,28.70
2015,06,29,14,55,28.80
2015,06,29,14,56,28.90
2015,06,29,14,57,29.10
2015,06,29,14,58,29.20
2015,06,29,14,59,29.20
2015,06,29,15,00,29.20
2015,06,29,15,01,29.10
2015,06,29,15,02,29.10
2015,06,29,15,03,29.00
2015,06,29,15,04,29.00
2015,06,29,15,05,29.00
2015,06,29,15,06,29.10
2015,06,29,15,07,29.10
2015,06,29,15,08,29.20
2015,06,29,15,09,29.30
2015,06,29,15,10,29.40
2015,06,29,15,11,29.40
2015,06,29,15,12,29.40
2015,06,29,15,13,29.40
2015,06,29,15,14,29.30
2015,06,29,15,15,29.30
2015,06,29,15,16,29.30
2015,06,29,15,17,29.30
2015,06,29,15,18,29.30
2015,06,29,15,19,29.30
2015,06,29,15,20,29.30
2015,06,29,15,21,29.30
2015,06,29,15,22,29.20
2015,06,29,15,23,29.20
2015,06,29,15,24,29.20
2015,06,29,15,25,29.20
2015,06,29,15,26,29.30
2015,06,29,15,27,29.40
2015,06,29,15,28,29.40
2015,06,29,15,29,29.50
2015,06,29,15,30,29.60
2015,06,29,15,31,29.60
2015,06,29,15,32,29.60
2015,06,29,15,33,29.60
2015,06,29,15,34,29.70
2015,06,29,15,35,29.60
2015,06,29,15,36,29.60
2015,06,29,15,37,29.60
2015,06,29,15,38,29.60
2015,06,29,15,39,29.60
2015,06,29,15,40,29.50
2015,06,29,15,41,29.40
2015,06,29,15,42,29.40
2015,06,29,15,43,29.30
2015,06,29,15,44,29.20
2015,06,29,15,45,29.10
2015,06,29,15,46,29.00
2015,06,29,15,47,28.90
2015,06,29,15,48,28.80
2015,06,29,15,49,28.70
2015,06,29,15,50,28.60
2015,06,29,15,51,28.40
2015,06,29,15,52,28.40
2015,06,29,15,53,28.40
2015,06,29,15,54,28.30
2015,06,29,15,55,28.20
2015,06,29,15,56,28.20
2015,06,29,15,57,28.10
2015,06,29,15,58,28.10
2015,06,29,15,59,28.10
2015,06,29,16,00,28.00
2015,06,29,16,01,27.90
2015,06,29,16,02,27.80
2015,06,29,16,03,27.70
2015,06,29,16,04,27.70
2015,06,29,16,05,27.70
2015,06,29,16,06,27.70
2015,06,29,16,07,27.70
2015,06,29,16,08,27.70
2015,06,29,16,09,27.70
2015,06,29,16,10,27.80
2015,06,29,16,11,27.90
2015,06,29,16,12,28.00
2015,06,29,16,13,28.10
2015,06,29,16,14,28.10
2015,06,29,16,15,28.20
2015,06,29,16,16,28.30
2015,06,29,16,17,28.40
2015,06,29,16,18,28.40
2015,06,29,16,19,28.40
2015,06,29,16,20,28.30
2015,06,29,16,21,28.30
2015,06,29,16,22,28.30
2015,06,29,16,23,28.30
2015,06,29,16,24,28.30
2015,06,29,16,25,28.30
2015,06,29,16,26,28.30
2015,06,29,16,27,28.30
2015,06,29,16,28,28.30
2015,06,29,16,29,28.20
2015,06,29,16,30,28.10
2015,06,29,16,31,28.00
2015,06,29,16,32,27.90
2015,06,29,16,33,27.80
2015,06,29,16,34,27.70
2015,06,29,16,35,27.60
2015,06,29,16,36,27.60
2015,06,29,16,37,27.60
2015,06,29,16,38,27.60
2015,06,29,16,39,27.60
2015,06,29,16,40,27.60
2015,06,29,16,41,27.60
2015,06,29,16,42,27.60
2015,06,29,16,43,27.60
2015,06,29,16,44,27.70
2015,06,29,16,45,27.70
2015,06,29,16,46,27.70
2015,06,29,16,47,27.80
2015,06,29,16,48,27.80
2015,06,29,16,49,27.80
2015,06,29,16,50,27.80
2015,06,29,16,51,27.90
2015,06,29,16,52,27.90
2015,06,29,16,53,28.00
2015,06,29,16,54,28.10
2015,06,29,16,55,28.10
2015,06,29,16,56,28.20
2015,06,29,16,57,28.30
2015,06,29,16,58,28.40
2015,06,29,16,59,28.40
2015,06,29,17,00,28.40
2015,06,29,17,01,28.40
2015,06,29,17,02,28.40
2015,06,29,17,03,28.40
2015,06,29,17,04,28.40
2015,06,29,17,05,28.30
2015,06,29,17,06,28.30
2015,06,29,17,07,28.30
2015,06,29,17,08,28.30
2015,06,29,17,09,28.30
2015,06,29,17,10,28.30
2015,06,29,17,11,28.30
2015,06,29,17,12,28.20
2015,06,29,17,13,28.30
2015,06,29,17,14,28.30
2015,06,29,17,15,28.40
2015,06,29,17,16,28.50
2015,06,29,17,17,28.60
2015,06,29,17,18,28.60
2015,06,29,17,19,28.70